This demonstration page uses our WeatherBlox Daily Observations layout. Learn more.

Left ArrowRight Arrow

Hourly Observations for September 1, 2018

Temp ( °F °C ) Dew Point ( °F °C ) Humidity (%) Winds ( mph kmh ) Pressure ( in mb ) Visibility ( mi km ) Precip ( " mm )
12:09 am 00:09 Partly Cloudy 75 24 73 23 94 94 SE 5 7 29.74 1007 10 16 0.00 0.00
12:35 am 00:35 Cloudy with Thunderstorms 75 24 73 23 94 94 NNW 14 22 29.74 1007 8 13 0.00 0.00
12:57 am 00:57 Cloudy with Thunderstorms 76 24.4 72 22.2 88 88 WNW 18 30 29.80 1009 5 8 0.06 1.52
1:09 am 01:09 Windy with Storms Likely 73 23 72 22 94 94 W 23 37 29.77 1008 3 4 0.00 0.00
1:19 am 01:19 Cloudy with Thunderstorms 70 21 64 18 83 83 W 23 37 29.85 1011 2 3 0.00 0.00
1:32 am 01:32 Cloudy with Thunderstorms 70 21 64 18 83 83 SSW 26 43 29.88 1012 3 4 0.44 11.18
1:38 am 01:38 Cloudy with Thunderstorms 68 20 63 17 83 83 SSW 25 41 29.91 1013 3 5 0.46 11.68
1:57 am 01:57 Cloudy with Thunderstorms 65 18.3 63 17.2 93 93 S 15 24 29.91 1013 6 10 0.49 12.45
2:13 am 02:13 Mostly Cloudy with Nearby Thunderstorms 64 18 63 17 94 94 ESE 3 6 29.88 1012 10 16 0.00 0.00
2:23 am 02:23 Partly Cloudy 66 19 63 17 88 88 SW 9 15 29.85 1011 10 16 0.00 0.00
2:57 am 02:57 Mostly Clear 66 18.9 63 17.2 90 90 ENE 12 19 29.80 1009 10 16 0.01 0.25
3:57 am 03:57 Clear 66 18.9 63 17.2 90 90 Calm 29.77 1008 10 16 0.00 0.00
4:57 am 04:57 Clear 66 18.9 63 17.2 90 90 SE 5 7 29.80 1009 10 16 0.00 0.00
5:57 am 05:57 Clear 70 21.1 60 15.6 71 71 SW 7 11 29.83 1010 10 16 0.00 0.00
6:57 am 06:57 Mostly Clear 69 20.6 61 16.1 76 76 NW 5 7 29.83 1010 10 16 0.00 0.00
7:57 am 07:57 Sunny 66 18.9 62 16.7 87 87 NNE 7 11 29.86 1011 10 16 0.00 0.00
8:57 am 08:57 Sunny 68 20 63 17.2 84 84 NW 9 15 29.87 1012 10 16 0.00 0.00
9:57 am 09:57 Mostly Cloudy 72 22.2 63 17.2 73 73 N 10 17 29.87 1011 10 16 0.00 0.00
10:57 am 10:57 Mostly Cloudy 71 21.7 64 17.8 79 79 SSE 9 15 29.92 1013 10 16 0.00 0.00
11:57 am 11:57 Cloudy 71 21.7 66 18.9 84 84 NNE 7 11 29.91 1013 10 16 0.01 0.25
12:57 pm 12:57 Cloudy with Mist and Fog 70 21.1 67 19.4 90 90 Calm 29.91 1013 6 10 0.01 0.25
1:57 pm 13:57 Partly Cloudy 77 25 67 19.4 71 71 ENE 12 19 29.87 1011 10 16 0.00 0.00
2:57 pm 14:57 Sunny 82 27.8 67 19.4 60 60 ESE 9 15 29.86 1011 10 16 0.00 0.00
3:57 pm 15:57 Partly Cloudy with Light Rain 81 27.2 68 20 65 65 SSE 7 11 29.86 1011 10 16 0.00 0.03
4:57 pm 16:57 Sunny 81 27.2 67 19.4 62 62 SSE 8 13 29.85 1011 10 16 0.00 0.03
5:57 pm 17:57 Cloudy with Light Rain 77 25 70 21.1 79 79 SE 8 13 29.83 1010 10 16 0.00 0.03
6:57 pm 18:57 Sunny 77 25 65 18.3 66 66 SE 10 17 29.81 1009 10 16 0.00 0.03
7:57 pm 19:57 Sunny 74 23.3 67 19.4 79 79 SE 8 13 29.83 1010 10 16 0.00 0.00
8:57 pm 20:57 Partly Cloudy with Light Rain 72 22.2 65 18.3 79 79 SE 14 22 29.83 1010 10 16 0.00 0.03
9:57 pm 21:57 Clear 72 22.2 64 17.8 76 76 SSE 20 31 29.84 1011 10 16 0.00 0.03
10:57 pm 22:57 Partly Cloudy 68 20 63 17.2 84 84 SSE 15 24 29.86 1011 10 16 0.01 0.25
11:57 pm 23:57 Clear with Light Rain 68 20 64 17.8 87 87 S 14 22 29.86 1011 10 16 0.00 0.03

Powered by AerisWeather